�������l�o���
Date,Time,MP-1(��Sv/h),MP-2(��Sv/h),MP-3(��Sv/h),MP-4(��Sv/h),MP-5(��Sv/h),MP-6(��Sv/h),MP-7(��Sv/h),MP-8(��Sv/h),����,����(m/s),���J
2015/02/05,00:00,1.767,3.205,3.197,3.032,3.308,1.047,1.748,2.087,��쐼,3.4,��
2015/02/05,00:10,1.767,3.205,3.197,3.033,3.312,1.048,1.747,2.085,��쐼,3.8,��
2015/02/05,00:20,1.768,3.207,3.198,3.038,3.312,1.048,1.747,2.087,��쐼,3.7,��
2015/02/05,00:30,1.767,3.207,3.200,3.042,3.312,1.047,1.748,2.088,��쐼,3.6,��
2015/02/05,00:40,1.768,3.207,3.202,3.037,3.310,1.048,1.748,2.087,��쐼,3.8,��
2015/02/05,00:50,1.772,3.208,3.205,3.038,3.310,1.048,1.747,2.087,��쐼,4.0,��
2015/02/05,01:00,1.770,3.207,3.203,3.038,3.312,1.048,1.747,2.088,��쐼,4.0,��
2015/02/05,01:10,1.770,3.207,3.205,3.040,3.308,1.050,1.748,2.090,��쐼,3.9,��
2015/02/05,01:20,1.772,3.212,3.207,3.037,3.310,1.050,1.753,2.087,��쐼,3.9,��
2015/02/05,01:30,1.772,3.210,3.205,3.038,3.313,1.047,1.748,2.087,��,4.3,��
2015/02/05,01:40,1.773,3.208,3.208,3.040,3.315,1.047,1.748,2.085,��쐼,4.0,��
2015/02/05,01:50,1.773,3.210,3.205,3.040,3.315,1.048,1.750,2.090,��쐼,4.0,��
2015/02/05,02:00,1.772,3.212,3.208,3.040,3.315,1.048,1.747,2.088,��쐼,3.9,��
2015/02/05,02:10,1.772,3.210,3.207,3.038,3.315,1.047,1.748,2.090,��,3.5,��
2015/02/05,02:20,1.772,3.208,3.207,3.035,3.312,1.048,1.747,2.087,��쐼,3.4,��
2015/02/05,02:30,1.773,3.208,3.203,3.040,3.313,1.050,1.752,2.085,��쐼,3.2,��
2015/02/05,02:40,1.772,3.210,3.202,3.037,3.317,1.048,1.753,2.090,��쐼,3.5,��
2015/02/05,02:50,1.772,3.207,3.200,3.040,3.315,1.048,1.748,2.088,��쐼,3.9,��
2015/02/05,03:00,1.770,3.205,3.203,3.038,3.318,1.048,1.748,2.087,��쐼,3.8,��
2015/02/05,03:10,1.770,3.210,3.202,3.040,3.315,1.050,1.750,2.088,�쐼,3.8,��
2015/02/05,03:20,1.768,3.207,3.203,3.042,3.312,1.048,1.750,2.088,�쐼,2.9,��
2015/02/05,03:30,1.772,3.207,3.210,3.040,3.313,1.047,1.750,2.088,�쐼,3.3,��
2015/02/05,03:40,1.773,3.207,3.205,3.040,3.315,1.048,1.748,2.087,�쐼,3.3,��
2015/02/05,03:50,1.772,3.208,3.203,3.043,3.315,1.048,1.748,2.085,�쐼,3.0,��
2015/02/05,04:00,1.772,3.210,3.207,3.040,3.315,1.047,1.748,2.087,�쐼,3.1,��
2015/02/05,04:10,1.770,3.212,3.207,3.045,3.315,1.048,1.748,2.085,��쐼,3.0,��
2015/02/05,04:20,1.773,3.210,3.205,3.045,3.312,1.047,1.748,2.088,��쐼,3.9,��
2015/02/05,04:30,1.772,3.212,3.203,3.045,3.317,1.050,1.750,2.087,��쐼,4.6,��
2015/02/05,04:40,1.773,3.208,3.203,3.043,3.315,1.048,1.750,2.088,��쐼,4.9,��
2015/02/05,04:50,1.773,3.205,3.202,3.040,3.313,1.050,1.748,2.087,�쐼,4.9,��
2015/02/05,05:00,1.773,3.208,3.205,3.040,3.317,1.047,1.748,2.085,�쐼,4.4,��
2015/02/05,05:10,1.773,3.207,3.203,3.042,3.313,1.048,1.748,2.090,�쐼,4.9,��
2015/02/05,05:20,1.773,3.208,3.208,3.043,3.312,1.050,1.748,2.087,���쐼,3.9,��
2015/02/05,05:30,1.775,3.207,3.205,3.040,3.312,1.047,1.750,2.087,�쐼,3.6,��
2015/02/05,05:40,1.772,3.210,3.208,3.040,3.313,1.045,1.748,2.085,���쐼,3.3,��
2015/02/05,05:50,1.772,3.208,3.205,3.040,3.312,1.045,1.750,2.087,���쐼,2.3,��
2015/02/05,06:00,1.773,3.212,3.205,3.042,3.313,1.048,1.748,2.083,�쐼,2.2,��
2015/02/05,06:10,1.773,3.208,3.203,3.040,3.312,1.047,1.752,2.087,�쐼,1.7,��
2015/02/05,06:20,1.775,3.208,3.207,3.045,3.308,1.047,1.747,2.087,�쐼,1.6,��
2015/02/05,06:30,1.772,3.207,3.205,3.042,3.308,1.045,1.747,2.083,���쐼,1.0,��
2015/02/05,06:40,1.772,3.207,3.205,3.040,3.310,1.045,1.750,2.087,���쐼,1.6,��
2015/02/05,06:50,1.773,3.210,3.205,3.042,3.308,1.043,1.750,2.088,���k��,1.5,��
2015/02/05,07:00,1.775,3.210,3.207,3.040,3.303,1.043,1.747,2.085,��,0.9,��
2015/02/05,07:10,1.775,3.210,3.205,3.042,3.307,1.042,1.748,2.087,�k��,1.8,��
2015/02/05,07:20,1.775,3.208,3.203,3.043,3.307,1.042,1.748,2.088,�k�k��,2.2,��
2015/02/05,07:30,1.775,3.213,3.202,3.042,3.308,1.037,1.748,2.090,�k�k��,3.0,��
2015/02/05,07:40,1.773,3.212,3.202,3.043,3.310,1.033,1.750,2.088,�k�k��,4.0,��
2015/02/05,07:50,1.773,3.212,3.207,3.045,3.308,1.033,1.752,2.085,�k�k��,3.6,��
2015/02/05,08:00,1.775,3.210,3.210,3.047,3.308,1.032,1.750,2.088,�k�k��,4.0,��
2015/02/05,08:10,1.773,3.217,3.205,3.047,3.310,1.032,1.750,2.088,�k�k��,3.6,��
2015/02/05,08:20,1.775,3.213,3.210,3.050,3.310,1.032,1.748,2.087,�k�k��,3.5,��
2015/02/05,08:30,1.778,3.215,3.208,3.048,3.313,1.033,1.752,2.085,�k�k��,3.1,��
2015/02/05,08:40,1.777,3.213,3.213,3.048,3.312,1.032,1.748,2.087,�k�k��,3.0,��
2015/02/05,08:50,1.778,3.215,3.213,3.048,3.315,1.033,1.750,2.090,�k�k��,3.6,��
2015/02/05,09:00,1.780,3.215,3.213,3.050,3.315,1.032,1.753,2.092,�k�k��,2.9,�L
2015/02/05,09:10,1.778,3.215,3.215,3.048,3.310,1.035,1.755,2.090,�k�k��,3.1,��
2015/02/05,09:20,1.778,3.215,3.215,3.048,3.317,1.033,1.752,2.083,�k�k��,2.6,��
2015/02/05,09:30,1.777,3.215,3.210,3.048,3.320,1.035,1.752,2.087,�k�k��,2.3,��
2015/02/05,09:40,1.778,3.217,3.210,3.055,3.320,1.037,1.752,2.088,�k��,2.2,��
2015/02/05,09:50,1.777,3.218,3.215,3.053,3.322,1.035,1.753,2.093,�k��,1.6,��
2015/02/05,10:00,1.778,3.220,3.207,3.055,3.322,1.033,1.755,2.087,�k��,1.8,��
2015/02/05,10:10,1.780,3.218,3.195,3.052,3.322,1.035,1.752,2.095,�k,1.3,��
2015/02/05,10:20,1.783,3.217,3.190,3.053,3.323,1.037,1.753,2.097,�k,1.4,��
2015/02/05,10:30,1.780,3.222,3.193,3.053,3.330,1.038,1.753,2.092,�k��,0.8,��
2015/02/05,10:40,1.778,3.218,3.195,3.055,3.325,1.037,1.757,2.090,�k�k��,0.6,��
2015/02/05,10:50,1.778,3.223,3.205,3.058,3.328,1.037,1.755,2.088,�k��,1.1,��
2015/02/05,11:00,1.780,3.223,3.208,3.057,3.330,1.037,1.753,2.087,��쓌,1.3,��
2015/02/05,11:10,1.782,3.225,3.207,3.052,3.327,1.035,1.753,2.088,�쓌,1.5,��
2015/02/05,11:20,-,3.225,3.212,3.053,3.332,1.035,1.753,2.085,��쓌,1.2,��
2015/02/05,11:30,-,3.228,3.213,3.053,3.332,1.037,1.757,2.087,��쓌,1.7,��
2015/02/05,11:40,-,3.225,3.217,3.055,3.328,1.040,1.758,2.088,�쓌,1.5,��
2015/02/05,11:50,-,3.227,3.215,3.058,3.332,1.038,1.755,2.087,�쓌,1.0,��
2015/02/05,12:00,-,3.228,3.210,3.060,3.332,1.037,1.758,2.087,��쓌,1.3,��
2015/02/05,12:10,-,3.227,3.220,3.053,3.332,1.038,1.757,2.085,���k��,0.8,��
2015/02/05,12:20,-,3.225,3.218,3.058,3.338,1.038,1.753,2.085,��쐼,0.5,��
2015/02/05,12:30,-,3.230,3.223,3.058,3.337,1.040,1.757,2.083,�k,1.1,��
2015/02/05,12:40,-,3.233,3.225,3.062,3.337,1.038,1.757,2.085,�k��,0.7,��
2015/02/05,12:50,-,3.233,3.228,3.063,3.337,1.040,1.755,2.090,�k�k��,0.8,��
2015/02/05,13:00,-,3.232,3.228,3.067,3.337,1.042,1.755,2.088,�k��,1.6,��
2015/02/05,13:10,-,3.232,3.232,3.065,3.338,1.040,1.757,2.092,�k�k��,2.0,��
2015/02/05,13:20,-,3.232,3.232,3.063,3.340,1.040,1.755,2.087,�k�k��,2.4,��
2015/02/05,13:30,-,3.233,3.228,3.067,3.343,1.040,1.755,2.087,�k,3.0,��
2015/02/05,13:40,-,3.235,3.228,3.067,3.343,1.037,1.760,2.088,�k,3.6,��
2015/02/05,13:50,1.782,3.233,3.233,3.068,3.340,1.042,1.758,2.092,�k,4.2,��
2015/02/05,14:00,1.787,3.237,3.235,3.068,3.342,1.042,1.758,2.090,�k,2.9,��
2015/02/05,14:10,1.787,3.237,3.233,3.068,3.340,1.042,1.758,2.090,�k,3.5,��
2015/02/05,14:20,1.785,3.235,3.238,3.068,3.345,1.043,1.760,2.088,�k,3.0,��
2015/02/05,14:30,1.788,3.233,3.240,3.068,3.350,1.043,1.758,2.093,�k,3.5,��
2015/02/05,14:40,1.787,3.242,3.238,3.070,3.347,1.045,1.757,2.093,�k,3.3,��
2015/02/05,14:50,1.788,3.245,3.240,3.070,3.348,1.045,1.758,2.092,�k,3.5,��
2015/02/05,15:00,1.790,3.245,3.240,3.077,3.345,1.045,1.760,2.095,�k�k��,3.9,��
2015/02/05,15:10,1.788,3.242,3.243,3.077,3.347,1.048,1.758,2.093,�k,4.0,�L
2015/02/05,15:20,1.788,3.238,3.247,3.077,3.348,1.052,1.758,2.088,�k,3.5,��
2015/02/05,15:30,1.790,3.243,3.247,3.073,3.347,1.053,1.760,2.088,�k�k��,3.8,��
2015/02/05,15:40,1.788,3.242,3.248,3.077,3.352,1.055,1.762,2.093,�k�k��,3.0,��
2015/02/05,15:50,1.792,3.248,3.250,3.077,3.352,1.055,1.762,2.092,�k�k��,3.9,��
2015/02/05,16:00,1.793,3.245,3.252,3.078,3.352,1.057,1.762,2.092,�k�k��,3.4,��
2015/02/05,16:10,1.793,3.248,3.252,3.078,3.355,1.055,1.760,2.092,�k�k��,3.5,��
2015/02/05,16:20,1.797,3.252,3.253,3.075,3.355,1.055,1.758,2.095,�k�k��,4.1,��
2015/02/05,16:30,1.792,3.252,3.250,3.082,3.352,1.053,1.760,2.097,�k�k��,3.8,��
2015/02/05,16:40,1.795,3.252,3.253,3.080,3.350,1.057,1.757,2.098,�k�k��,4.2,��
2015/02/05,16:50,1.795,3.250,3.252,3.082,3.355,1.057,1.762,2.093,�k�k��,4.4,��
2015/02/05,17:00,1.795,3.255,3.253,3.085,3.357,1.058,1.765,2.095,�k�k��,5.0,��
2015/02/05,17:10,1.795,3.253,3.257,3.085,3.358,1.058,1.760,2.095,�k�k��,5.1,�L
2015/02/05,17:20,1.793,3.245,3.255,3.085,3.358,1.057,1.758,2.093,�k,4.6,�L
2015/02/05,17:30,1.793,3.243,3.252,3.087,3.358,1.055,1.762,2.097,�k�k��,5.4,��
2015/02/05,17:40,1.793,3.238,3.247,3.083,3.353,1.057,1.760,2.095,�k�k��,4.7,��
2015/02/05,17:50,1.797,3.237,3.248,3.087,3.352,1.060,1.760,2.097,�k�k��,5.0,��
2015/02/05,18:00,1.792,3.237,3.248,3.087,3.353,1.060,1.762,2.098,�k�k��,4.2,�L
2015/02/05,18:10,1.795,3.235,3.248,3.087,3.353,1.060,1.760,2.093,�k�k��,4.1,�L
2015/02/05,18:20,1.793,3.227,3.242,3.087,3.350,1.060,1.762,2.095,�k�k��,4.7,�L
2015/02/05,18:30,1.797,3.223,3.240,3.082,3.338,1.060,1.760,2.095,�k�k��,3.9,�L
2015/02/05,18:40,1.793,3.222,3.237,3.080,3.330,1.062,1.758,2.095,�k�k��,4.4,�L
2015/02/05,18:50,1.792,3.230,3.235,3.083,3.328,1.060,1.758,2.095,�k�k��,4.1,��
2015/02/05,19:00,1.792,3.233,3.242,3.080,3.332,1.058,1.760,2.093,�k�k��,4.7,��
2015/02/05,19:10,1.793,3.232,3.242,3.082,3.330,1.058,1.760,2.095,�k��,4.6,��
2015/02/05,19:20,1.792,3.232,3.243,3.085,3.332,1.060,1.762,2.095,�k��,5.4,��
2015/02/05,19:30,1.793,3.232,3.238,3.083,3.335,1.060,1.763,2.092,�k��,5.4,��
2015/02/05,19:40,1.792,3.228,3.245,3.082,3.333,1.058,1.762,2.093,�k��,5.5,��
2015/02/05,19:50,1.792,3.232,3.247,3.087,3.335,1.060,1.762,2.093,�k��,5.3,��
2015/02/05,20:00,1.793,3.237,3.245,3.085,3.335,1.063,1.763,2.095,�k��,5.2,��
2015/02/05,20:10,1.793,3.233,3.247,3.088,3.335,1.062,1.760,2.095,�k�k��,5.2,��
2015/02/05,20:20,1.792,3.238,3.245,3.092,3.335,1.062,1.763,2.095,�k�k��,5.3,��
2015/02/05,20:30,1.795,3.238,3.245,3.092,3.340,1.062,1.763,2.095,�k�k��,5.2,��
2015/02/05,20:40,1.793,3.240,3.252,3.090,3.338,1.062,1.765,2.095,�k�k��,6.1,��
2015/02/05,20:50,1.792,3.237,3.250,3.092,3.335,1.063,1.763,2.093,�k�k��,6.3,��
2015/02/05,21:00,1.795,3.238,3.253,3.092,3.338,1.062,1.762,2.097,�k�k��,6.0,��
2015/02/05,21:10,1.795,3.237,3.252,3.095,3.343,1.063,1.762,2.095,�k�k��,6.9,��
2015/02/05,21:20,1.795,3.238,3.253,3.093,3.342,1.060,1.763,2.093,�k�k��,6.6,��
2015/02/05,21:30,1.797,3.238,3.252,3.095,3.338,1.065,1.762,2.098,�k�k��,7.2,��
2015/02/05,21:40,1.793,3.240,3.252,3.093,3.338,1.062,1.765,2.102,�k�k��,6.7,��
2015/02/05,21:50,1.793,3.243,3.255,3.097,3.342,1.062,1.765,2.097,�k�k��,6.5,��
2015/02/05,22:00,1.797,3.243,3.253,3.098,3.343,1.063,1.763,2.097,�k�k��,7.1,��
2015/02/05,22:10,1.798,3.240,3.253,3.097,3.340,1.063,1.765,2.098,�k�k��,7.4,��
2015/02/05,22:20,1.797,3.245,3.255,3.098,3.342,1.063,1.765,2.097,�k�k��,7.7,��
2015/02/05,22:30,1.798,3.245,3.257,3.097,3.345,1.062,1.763,2.097,�k�k��,7.2,��
2015/02/05,22:40,1.798,3.242,3.258,3.098,3.345,1.065,1.767,2.095,�k�k��,6.5,�L
2015/02/05,22:50,1.797,3.247,3.258,3.097,3.347,1.065,1.763,2.095,�k�k��,6.6,��
2015/02/05,23:00,1.795,3.243,3.258,3.095,3.347,1.065,1.763,2.098,�k�k��,6.3,��
2015/02/05,23:10,1.800,3.245,3.257,3.102,3.345,1.067,1.763,2.098,�k�k��,6.9,��
2015/02/05,23:20,1.798,3.240,3.262,3.105,3.347,1.062,1.767,2.095,�k�k��,6.4,��
2015/02/05,23:30,1.797,3.245,3.262,3.105,3.343,1.063,1.768,2.097,�k�k��,7.1,��
2015/02/05,23:40,1.800,3.252,3.258,3.105,3.343,1.062,1.767,2.097,�k�k��,6.3,��
2015/02/05,23:50,1.798,3.252,3.258,3.108,3.348,1.065,1.765,2.093,�k�k��,6.3,��
